Regional Weather Roundup
Issued by NWS

Home | Current Version | Previous Version | Graphics & Text | Print | Product List | Glossary On
Versions: 1 2 3 4 5 6 7 8 9 10 11 12 13 14 15 16 17 18 19 20 21 22 23 24 25 26 27 28 29 30 31 32 33 34 35 36 37 38 39 40 41 42 43 44 45 46 47 48 49 50
000
ASUS43 KBIS 031220
RWRND

NORTH DAKOTA REGIONAL WEATHER ROUNDUP
NATIONAL WEATHER SERVICE BISMARCK ND
700 AM CDT SUN MAY 03 2015

NOTE: "FAIR" INDICATES FEW OR NO CLOUDS BELOW 12,000 FEET WITH NO
SIGNIFICANT WEATHER AND/OR OBSTRUCTIONS TO VISIBILITY.


NDZ001>003-009>011-017-031300-
NORTHWEST NORTH DAKOTA

CITY           SKY/WX    TMP DP  RH WIND       PRES   REMARKS
WILLISTON      PTCLDY    41  33  73 E6        29.96R
6HR MIN TEMP:  40; 6HR MAX TEMP:  52;

MINOT          LGT RAIN  46  34  62 W16       29.89R
MINOT AFB      MOCLDY    43  37  80 NW14      29.89R
$$

NDZ018>021-031>035-040>046-031300-
SOUTHWEST NORTH DAKOTA

CITY           SKY/WX    TMP DP  RH WIND       PRES   REMARKS
BISMARCK       LGT RAIN  53  39  59 NW10      29.91R
6HR MIN TEMP:  52; 6HR MAX TEMP:  59; 6HR PCP: TRACE;

DICKINSON      CLOUDY    49  36  61 N8        29.93S
GARRISON         N/A     48  38  68 NW6       29.91R
6HR MIN TEMP:  46; 6HR MAX TEMP:  52;

HETTINGER ARPT CLOUDY    49  36  61 N12       29.93R
$$

NDZ004>008-012>016-024-026-027-054-031300-
NORTHEAST NORTH DAKOTA

CITY           SKY/WX    TMP DP  RH WIND       PRES   REMARKS
GRAND FORKS    MOCLDY    49  41  74 NW9       29.77R
GRND FRKS AFB  PTCLDY    49  39  69 NW8       29.79R
DEVILS LAKE    CLOUDY    50  37  62 NW15      29.84R
$$

NDZ022-023-025-028>030-036>039-047>053-031300-
SOUTHEAST NORTH DAKOTA

CITY           SKY/WX    TMP DP  RH WIND       PRES   REMARKS
FARGO          PTCLDY    49  41  74 N9        29.75R
6HR MIN TEMP:  48; 6HR MAX TEMP:  61;

JAMESTOWN      CLOUDY    53  37  54 N21G26    29.81R
$$




USA.gov is the U.S. government's official web portal to all federal, state and local government web resources and services.